| time (UTC) | temp C | wind direction | speed KPH | gust KPH | rain 1hr cm | rain 24hr cm | rain mn cm | humidity % | barometer mb |
| 20260505213047 | 26 | 226 | 6.4 | 22.5 | 0.00 | 0.20 | 0.20 | 36 | 1007.6 |
| 20260505211536 | 26 | 148 | 4.8 | 30.6 | 0.00 | 0.20 | 0.20 | 36 | 1007.4 |
| 20260505210043 | 26 | 270 | 8.0 | 17.7 | 0.00 | 0.20 | 0.20 | 35 | 1007.4 |
| 20260505204542 | 27 | 305 | 6.4 | 20.9 | 0.00 | 0.20 | 0.20 | 36 | 1007.4 |
| 20260505203039 | 27 | 338 | 4.8 | 17.7 | 0.00 | 0.20 | 0.20 | 36 | 1007.3 |
| 20260505201538 | 27 | 207 | 4.8 | 14.5 | 0.00 | 0.20 | 0.20 | 40 | 1007.3 |
| 20260505200047 | 27 | 15 | 6.4 | 24.1 | 0.00 | 0.20 | 0.20 | 38 | 1007.5 |
| 20260505194546 | 26 | 297 | 9.7 | 24.1 | 0.00 | 0.20 | 0.20 | 33 | 1007.7 |
| 20260505193043 | 26 | 309 | 8.0 | 37.0 | 0.00 | 0.20 | 0.20 | 32 | 1007.8 |
| 20260505191554 | 27 | 316 | 6.4 | 27.4 | 0.00 | 0.20 | 0.20 | 31 | 1008.1 |
| 20260505190039 | 26 | 217 | 8.0 | 24.1 | 0.00 | 0.20 | 0.20 | 34 | 1008.2 |
| 20260505184536 | 26 | 221 | 8.0 | 32.2 | 0.00 | 0.20 | 0.20 | 33 | 1008.6 |
| 20260505183043 | 26 | 218 | 9.7 | 22.5 | 0.00 | 0.20 | 0.20 | 32 | 1008.6 |
| 20260505181542 | 26 | 274 | 8.0 | 25.7 | 0.00 | 0.20 | 0.20 | 35 | 1008.8 |
| 20260505180139 | 26 | 248 | 8.0 | 32.2 | 0.00 | 0.20 | 0.20 | 35 | 1008.9 |
| 20260505174552 | 26 | 179 | 4.8 | 19.3 | 0.00 | 0.20 | 0.20 | 40 | 1009.1 |
| 20260505173046 | 26 | 205 | 8.0 | 25.7 | 0.00 | 0.20 | 0.20 | 39 | 1009.1 |
| 20260505171536 | 26 | 297 | 9.7 | 22.5 | 0.00 | 0.20 | 0.20 | 40 | 1009.1 |
| 20260505170043 | 26 | 255 | 3.2 | 16.1 | 0.00 | 0.20 | 0.20 | 44 | 1009.3 |
| 20260505164543 | 25 | 349 | 4.8 | 17.7 | 0.00 | 0.20 | 0.20 | 43 | 1009.6 |
| 20260505163037 | 25 | 224 | 6.4 | 17.7 | 0.00 | 0.20 | 0.20 | 45 | 1009.9 |
| 20260505161537 | 24 | 304 | 1.6 | 14.5 | 0.00 | 0.20 | 0.20 | 48 | 1010.0 |
| 20260505153042 | 23 | 208 | 4.8 | 12.9 | 0.00 | 0.20 | 0.20 | 50 | 1010.3 |
| 20260505151541 | 22 | 233 | 3.2 | 12.9 | 0.00 | 0.20 | 0.20 | 53 | 1010.4 |
| 20260505124541 | 16 | 126 | 0.0 | 3.2 | 0.00 | 0.20 | 0.20 | 72 | 1011.4 |
| 20260505123037 | 15 | 0 | 0.0 | 4.8 | 0.00 | 0.20 | 0.20 | 77 | 1011.1 |
| 20260505121536 | 15 | 109 | 1.6 | 3.2 | 0.00 | 0.20 | 0.20 | 80 | 1011.1 |
| 20260505120043 | 14 | 96 | 0.0 | 3.2 | 0.00 | 0.20 | 0.20 | 85 | 1011.2 |
| 20260505114543 | 13 | 0 | 0.0 | 0.0 | 0.00 | 0.20 | 0.20 | 90 | 1011.2 |
| 20260505113048 | 12 | 111 | 0.0 | 1.6 | 0.00 | 0.20 | 0.20 | 93 | 1011.0 |
| 20260505111537 | 11 | 79 | 0.0 | 3.2 | 0.00 | 0.20 | 0.20 | 93 | 1010.8 |
| 20260505101558 | 10 | 0 | 0.0 | 1.6 | 0.03 | 0.20 | 0.20 | 92 | 1010.6 |
| 20260505100057 | 10 | 0 | 0.0 | 0.0 | 0.03 | 0.20 | 0.20 | 91 | 1010.4 |
| 20260505094544 | 11 | 0 | 0.0 | 1.6 | 0.15 | 0.20 | 0.20 | 91 | 1010.1 |
| 20260505093037 | 11 | 0 | 1.6 | 4.8 | 0.20 | 0.20 | 0.20 | 91 | 1010.0 |
| 20260505091543 | 11 | 0 | 0.0 | 6.4 | 0.18 | 0.18 | 0.18 | 89 | 1010.2 |
| 20260505090041 | 11 | 136 | 4.8 | 8.0 | 0.18 | 0.18 | 0.18 | 88 | 1010.0 |
| 20260505084538 | 11 | 0 | 0.0 | 0.0 | 0.05 | 0.05 | 0.05 | 85 | 1010.8 |
| 20260505083043 | 12 | 0 | 0.0 | 0.0 | 0.00 | 0.00 | 0.00 | 77 | 1010.9 |
| 20260505081558 | 12 | 0 | 0.0 | 0.0 | 0.00 | 0.00 | 0.00 | 70 | 1010.5 |
| 20260505080051 | 12 | 0 | 0.0 | 0.0 | 0.00 | 0.00 | 0.00 | 69 | 1010.3 |
| 20260505074542 | 12 | 0 | 0.0 | 0.0 | 0.00 | 0.00 | 0.00 | 68 | 1010.0 |
| 20260505073041 | 12 | 0 | 0.0 | 0.0 | 0.00 | 0.00 | 0.00 | 67 | 1009.9 |
| 20260505071542 | 12 | 0 | 0.0 | 0.0 | 0.00 | 0.00 | 0.00 | 67 | 1010.1 |
| 20260505070037 | 12 | 0 | 0.0 | 0.0 | 0.00 | 0.00 | 0.00 | 66 | 1010.2 |
| 20260505064535 | 12 | 0 | 0.0 | 0.0 | 0.00 | 0.00 | 0.00 | 69 | 1010.1 |
| 20260505063048 | 12 | 0 | 0.0 | 0.0 | 0.00 | 0.00 | 0.00 | 70 | 1010.1 |
| 20260505061545 | 12 | 0 | 0.0 | 0.0 | 0.00 | 0.00 | 0.00 | 69 | 1010.2 |
| 20260505060039 | 12 | 0 | 0.0 | 0.0 | 0.00 | 0.00 | 0.00 | 69 | 1010.2 |
| 20260505054544 | 12 | 0 | 0.0 | 0.0 | 0.00 | 0.00 | 0.00 | 69 | 1010.3 |
| 20260505053048 | 12 | 0 | 0.0 | 0.0 | 0.00 | 0.00 | 0.00 | 68 | 1010.2 |
| 20260505051544 | 12 | 0 | 0.0 | 0.0 | 0.00 | 0.00 | 0.00 | 68 | 1010.3 |
| 20260505041536 | 12 | 0 | 0.0 | 0.0 | 0.00 | 0.00 | 0.00 | 66 | 1010.0 |
| 20260505040046 | 12 | 0 | 0.0 | 0.0 | 0.00 | 0.00 | 0.00 | 65 | 1009.9 |
| 20260505034546 | 12 | 0 | 0.0 | 0.0 | 0.00 | 0.00 | 0.00 | 65 | 1010.0 |
| 20260505033037 | 13 | 0 | 0.0 | 0.0 | 0.00 | 0.00 | 0.00 | 62 | 1009.9 |
| 20260505031543 | 13 | 0 | 0.0 | 0.0 | 0.00 | 0.00 | 0.00 | 61 | 1010.0 |
| 20260505030043 | 14 | 0 | 0.0 | 0.0 | 0.00 | 0.00 | 0.00 | 60 | 1010.1 |
| 20260505024543 | 15 | 0 | 1.6 | 3.2 | 0.00 | 0.00 | 0.00 | 58 | 1010.1 |
| 20260505023055 | 14 | 45 | 0.0 | 3.2 | 0.00 | 0.00 | 0.00 | 57 | 1010.3 |
| 20260505021537 | 15 | 46 | 1.6 | 3.2 | 0.00 | 0.00 | 0.00 | 56 | 1010.3 |
| 20260505020039 | 15 | 0 | 1.6 | 4.8 | 0.00 | 0.00 | 0.00 | 58 | 1010.3 |
| 20260505014550 | 15 | 0 | 0.0 | 3.2 | 0.00 | 0.00 | 0.00 | 56 | 1010.3 |
| 20260505013042 | 15 | 31 | 0.0 | 3.2 | 0.00 | 0.00 | 0.00 | 54 | 1010.2 |
| 20260505011543 | 16 | 26 | 0.0 | 3.2 | 0.00 | 0.00 | 0.00 | 52 | 1010.2 |
| 20260505010104 | 16 | 0 | 0.0 | 1.6 | 0.00 | 0.00 | 0.00 | 50 | 1010.0 |
| 20260505004536 | 16 | 0 | 0.0 | 3.2 | 0.00 | 0.00 | 0.00 | 49 | 1010.0 |
| 20260505003041 | 17 | 0 | 0.0 | 1.6 | 0.00 | 0.00 | 0.00 | 47 | 1009.8 |
| 20260505001535 | 17 | 0 | 0.0 | 4.8 | 0.00 | 0.00 | 0.00 | 46 | 1009.6 |
| 20260505000046 | 18 | 0 | 0.0 | 6.4 | 0.00 | 0.00 | 0.00 | 44 | 1009.4 |
| 20260504234539 | 19 | 212 | 3.2 | 17.7 | 0.00 | 0.00 | 0.00 | 42 | 1009.2 |
| 20260504233036 | 20 | 152 | 3.2 | 11.3 | 0.00 | 0.00 | 0.00 | 40 | 1009.1 |
| 20260504231546 | 21 | 246 | 3.2 | 9.7 | 0.00 | 0.00 | 0.00 | 37 | 1008.8 |
| 20260504230042 | 21 | 230 | 3.2 | 16.1 | 0.00 | 0.00 | 0.00 | 37 | 1008.8 |
| 20260504224543 | 22 | 0 | 3.2 | 11.3 | 0.00 | 0.00 | 0.00 | 37 | 1008.6 |
| 20260504223038 | 22 | 0 | 1.6 | 16.1 | 0.00 | 0.00 | 0.00 | 39 | 1008.7 |
| 20260504221548 | 22 | 214 | 3.2 | 14.5 | 0.00 | 0.00 | 0.00 | 36 | 1008.8 |
| 20260504220046 | 22 | 282 | 6.4 | 16.1 | 0.00 | 0.00 | 0.00 | 35 | 1009.0 |
| 20260504214543 | 22 | 217 | 4.8 | 14.5 | 0.00 | 0.00 | 0.00 | 35 | 1008.9 |